This is the latest recevied weather packets stored in our database for station/object N7CEE. If no packets are shown the sender has not sent any weather packets the latest 10 day(s).
| Time | Temp. | Humidity | Pressure | Rain* | Wind** | Luminosity | Snow |
|---|---|---|---|---|---|---|---|
| 1777757395 | 20° C | 22% | 1025.7 hPa | 0 mm | - | 719 W/m² | - |
| 1777757093 | 19.44° C | 22% | 1025.8 hPa | 0 mm | - | 731 W/m² | - |
| 1777756790 | 20.56° C | 22% | 1026.1 hPa | 0 mm | - | 740 W/m² | - |
| 1777756486 | 19.44° C | 22% | 1026.1 hPa | 0 mm | - | 751 W/m² | - |
| 1777756184 | 19.44° C | 23% | 1026.1 hPa | 0 mm | - | 739 W/m² | - |
| 1777755880 | 20.56° C | 23% | 1026 hPa | 0 mm | - | 770 W/m² | - |
| 1777755577 | 19.44° C | 22% | 1026.1 hPa | 0 mm | - | 730 W/m² | - |
| 1777755273 | 20° C | 22% | 1026.3 hPa | 0 mm | - | 159 W/m² | - |
| 1777754971 | 20.56° C | 22% | 1026.3 hPa | 0 mm | - | 796 W/m² | - |
| 1777754668 | 19.44° C | 22% | 1026.5 hPa | 0 mm | - | 800 W/m² | - |
| 1777754366 | 19.44° C | 22% | 1026.5 hPa | 0 mm | - | 807 W/m² | - |
| 1777754063 | 18.33° C | 23% | 1026.5 hPa | 0 mm | - | 809 W/m² | - |
| 1777753758 | 20° C | 22% | 1026.7 hPa | 0 mm | - | 814 W/m² | - |
| 1777753456 | 18.89° C | 23% | 1026.6 hPa | 0 mm | - | 813 W/m² | - |
| 1777753154 | 18.89° C | 23% | 1026.5 hPa | 0 mm | - | 823 W/m² | - |
| 1777752849 | 19.44° C | 23% | 1026.7 hPa | 0 mm | - | 778 W/m² | - |
| 1777752547 | 18.89° C | 24% | 1026.6 hPa | 0 mm | - | 831 W/m² | - |
| 1777752242 | 19.44° C | 23% | 1026.5 hPa | 0 mm | - | 838 W/m² | - |
| 1777751940 | 18.89° C | 24% | 1026.7 hPa | 0 mm | - | 842 W/m² | - |
| 1777751636 | 18.89° C | 24% | 1026.6 hPa | 0 mm | - | 842 W/m² | - |
| 1777751333 | 18.89° C | 24% | 1026.7 hPa | 0 mm | - | 821 W/m² | - |
| 1777751030 | 18.89° C | 24% | 1026.8 hPa | 0 mm | - | 842 W/m² | - |
| 1777750726 | 18.89° C | 23% | 1027 hPa | 0 mm | - | 872 W/m² | - |
| 1777750423 | 18.89° C | 24% | 1027 hPa | 0 mm | - | 840 W/m² | - |
| 1777750119 | 18.33° C | 24% | 1027.2 hPa | 0 mm | - | 851 W/m² | - |
* Rain latest hour (hover to see other rain measurements)
** Current wind speed in m/s (hover to see current wind gust speed)